Preview of NWS' New Version of Forecast
This preview is not operational and should not be used for support decisions.
Latest weather observations around

Huntsville, Madison County Executive Airport (KMDQ)

Using English Units (Switch to International System of Units)
Date/ Time (CDT) Wind (mph) Vis. (mi) Weather Sky Cond. Temp (°F) Rel. Humidity Wind Chill (°F) Heat Index (°F) Pressure Precip. (in)
Air Dwpt 6 hour Altimeter (inHg) Sea level (inHg) 1 hr 3 hr 6 hr
Max Min
Jun 25 20:35 WSW 3 10 Clear CLR 77 68     73%   78 30.09        
Jun 25 20:15 W 5 10 Clear CLR 78 67     68%   79 30.08        
Jun 25 19:55 W 5 10 Clear CLR 80 66     62%   82 30.08        
Jun 25 19:35 W 3 10 Clear CLR 81 66     61%   83 30.07        
Jun 25 19:15 W 6 10 Clear CLR 82 66     59%   84 30.07        
Jun 25 18:55 WNW 8 10 Clear CLR 83 66     56%   85 30.07        
Jun 25 18:35 WNW 6 10 Clear CLR 84 66     55%   87 30.07        
Jun 25 18:15 W 9 10 Clear CLR 85 65     52%   87 30.07        
Jun 25 17:55 W 9 10 Clear CLR 86 65     50%   88 30.07        
Jun 25 17:35 W 5 10 Clear CLR 85 65     50%   87 30.07        
Jun 25 17:15 W 8 10 Clear CLR 86 66     52%   88 30.07        
Jun 25 16:55 W 7 10 Clear CLR 85 65     50%   87 30.07        
Jun 25 16:35 W 7 10 Clear CLR 85 63     48%   87 30.07        
Jun 25 16:15 WNW 10 10 Clear CLR 86 64     48%   88 30.08        
Jun 25 15:55 W 10 10 Clear CLR 87 64     47%   88 30.08        
Jun 25 15:35 WNW 9 10 Clear CLR 86 65     51%   88 30.08        
Jun 25 15:15 WSW 10 1.5 Haze BKN050 86 65     50%   88 30.08        
Jun 25 14:55 SW 5 10 Partly Cloudy SCT050 86 66     51%   88 30.09        
Jun 25 14:35 W 7 10 Clear CLR 87 67     52%   89 30.09        
Jun 25 14:15 WNW 8 10 Partly Cloudy SCT050 SCT065 85 65     50%   87 30.09        
Jun 25 13:55 W 9 10 Mostly Cloudy SCT049 BKN060 86 65     51%   88 30.1        
Jun 25 13:35 SSW 6 10 Mostly Cloudy SCT049 BKN060 85 66     54%   87 30.1        
Jun 25 13:15 WNW 6 10 Mostly Cloudy BKN049 BKN060 BKN070 84 65     53%   86 30.1        
Jun 25 12:55 WSW 8 10 Mostly Cloudy SCT045 BKN050 84 66     55%   87 30.1        
Jun 25 12:35 Calm 10 Partly Cloudy SCT045 SCT050 83 64     53%   85 30.1        
Jun 25 12:15 Calm 10 Partly Cloudy SCT041 SCT050 84 67     58%   86 30.11        
Jun 25 11:55 E 5 10 Partly Cloudy SCT039 SCT046 SCT055 83 67     58%   86 30.1        
Jun 25 11:35 NE 3 10 Mostly Cloudy SCT039 BKN048 BKN055 83 67     58%   86 30.1        
Jun 25 11:15 ENE 3 10 Partly Cloudy SCT033 SCT042 SCT048 83 67     59%   86 30.1        
Jun 25 10:55 Calm 10 Mostly Cloudy BKN031 BKN040 BKN046 80 68     66%   82 30.1        
Jun 25 10:35 NE 3 10 Mostly Cloudy SCT023 BKN032 BKN040 81 70     69%   84 30.1        
Jun 25 10:15 WNW 3 10 Cloudy BKN023 BKN034 OVC041 79 69     71%   82 30.1        
Jun 25 09:55 NW 3 10 Mostly Cloudy SCT021 BKN027 BKN034 78 69     73%   79 30.1        
Jun 25 09:35 Calm 10 Partly Cloudy SCT019 78 70     77%   79 30.1        
Jun 25 09:15 WSW 3 10 Partly Cloudy SCT015 77 70     78%   78 30.1        
Jun 25 08:55 WSW 5 10 Partly Cloudy SCT012 76 70     81%   77 30.1        
Jun 25 08:35 SW 3 10 Partly Cloudy SCT012 75 70     84%   76 30.1        
Jun 25 08:15 SSW 6 10 Clear CLR 74 69     85%   75 30.09        
Jun 25 07:55 SSW 3 10 Clear CLR 73 69     87%   74 30.08        
Jun 25 07:35 SSW 3 10 Clear CLR 72 69     89%   73 30.08        
Jun 25 07:15 Calm 10 Clear CLR 70 68     92%   71 30.07        
Jun 25 06:55 Calm 10 Clear CLR 69 66     92%     30.07        
Jun 25 06:35 Calm 10 Clear CLR 66 65     96%     30.06        
Jun 25 06:15 Calm 10 Clear CLR 64 63     98%     30.05        
Jun 25 05:55 Calm 10 Clear CLR 63 63     98%     30.05        
Jun 25 05:35 Calm 3.5 Fog/Mist CLR 64 63     98%     30.04        
Jun 25 05:15 Calm 10 Clear CLR 64 63     98%     30.03        
Jun 25 04:55 Calm 10 Clear CLR 65 64     97%     30.03        
Jun 25 04:35 Calm 10 Clear CLR 64 63     97%     30.03        
Jun 25 04:15 Calm 10 Clear CLR 64 64     98%     30.02        
Jun 25 03:55 Calm 10 Clear CLR 66 65     97%     30.02        
Jun 25 03:35 Calm 10 Clear CLR 67 65     95%     30.01        
Jun 25 03:15 Calm 10 Clear CLR 65 64     97%     30        
Jun 25 02:55 Calm 10 Clear CLR 65 65     98%     30        
Jun 25 02:35 Calm 10 Clear CLR 67 66     98%     29.99        
Jun 25 02:15 Calm 7 Clear CLR 66 65     98%     29.98        
Jun 25 01:55 Calm 10 Clear CLR 65 65     97%     29.98        
Jun 25 01:35 Calm 10 Clear CLR 66 65     96%     29.98        
Jun 25 01:15 Calm 10 Clear CLR 67 66     97%     29.98        
Jun 25 00:55 Calm 10 Clear CLR 67 67     97%     29.98        
Jun 25 00:35 Calm 10 Partly Cloudy SCT034 68 67     96%     29.97        
Jun 25 00:15 Calm 10 Partly Cloudy SCT034 68 66     96%     29.97        
Jun 24 23:55 Calm 10 Clear CLR 69 67     94%     29.97        
Jun 24 23:35 Calm 10 Clear CLR 71 68     92%   72 29.97        
Jun 24 23:15 Calm 10 Clear CLR 72 68     88%   73 29.96        
Jun 24 22:55 Calm 10 Clear CLR 71 68     92%   72 29.96        
Jun 24 22:35 Calm 10 Clear CLR 71 68     91%   72 29.95        
Jun 24 22:15 Calm 10 Clear CLR 70 68     92%   71 29.95        
Jun 24 21:55 Calm 10 Clear CLR 72 68     89%   73 29.95        
Jun 24 21:35 Calm 10 Clear CLR 74 68     80%   75 29.95        
Jun 24 21:15 SW 5 10 Clear CLR 74 67     81%   75 29.94        
Jun 24 20:55 Calm 10 Clear CLR 73 68     83%   74 29.94        
Jun 24 20:35 W 3 10 Clear   74 68     80%   75 29.94        
Jun 24 20:15 W 3 10 Clear   77 67     71%   78 29.94        
Jun 24 19:55 W 3 10 Clear   78 67     69%   79 29.94        
Jun 24 19:35 WNW 5 10 Clear CLR 79 67     67%   82 29.93        
Jun 24 19:15 WNW 7 10 Clear CLR 80 67     64%   83 29.93        
Jun 24 18:55 W 9 10 Clear CLR 81 66     62%   83 29.92        
Jun 24 18:35 W 9 10 Clear CLR 82 67     60%   84 29.91        
Jun 24 18:15 WNW 11 10 Clear CLR 83 66     57%   85 29.9        
Jun 24 17:35 W 11 10 Clear   85 66     54%   87 29.89        
Jun 24 17:15 W 15 10 Clear   85 66     53%   87 29.88        
Jun 24 16:55 W 10 10 Clear   85 66     53%   87 29.88        
Jun 24 16:35 W 14 10 Clear CLR 85 67     54%   88 29.88        
Jun 24 16:15 W 18 10 Partly Cloudy SCT048 86 65     51%   88 29.89        
Jun 24 15:55 W 14 10 Partly Cloudy SCT048 86 66     51%   89 29.89        
Jun 24 15:35 W 16 10 Partly Cloudy SCT042 SCT050 86 68     55%   89 29.89        
Jun 24 15:15 WNW 13 10 Partly Cloudy SCT040 SCT050 84 69     60%   88 29.88        
Jun 24 14:55 WSW 15 10 Clear CLR 86 67     54%   89 29.88        
Jun 24 14:35 W 11 10 Clear CLR 87 68     54%   90 29.87        
Jun 24 14:15 WSW 17 10 Partly Cloudy SCT042 SCT050 SCT065 86 70     59%   91 29.87        
Jun 24 13:55 WSW 16 10 Mostly Cloudy BKN043 BKN055 BKN090 87 71     58%   93 29.87        
Jun 24 13:35 SW 16 10 Mostly Cloudy SCT036 BKN044 BKN060 87 73     62%   95 29.86        
Jun 24 13:15 SW 13 10 Mostly Cloudy BKN036 BKN045 BKN065 87 73     64%   94 29.86        
Jun 24 12:55 SSW 17 10 Cloudy SCT028 BKN036 OVC044 86 73     67%   93 29.87        
Jun 24 12:35 SSW 16 10 Cloudy SCT028 BKN036 OVC045 85 74     70%   92 29.87        
Jun 24 12:15 SSW 17 10 Mostly Cloudy BKN026 BKN032 85 74     69%   93 29.87        
Jun 24 11:55   10 Cloudy OVC026 84 73     69%   91 29.86        
Jun 24 11:35   10 Cloudy OVC026 83 74     72%   90 29.85        
Jun 24 11:15 S 17 10 Mostly Cloudy BKN026 BKN030 BKN085 83 73     74%   89 29.86        
Jun 24 10:55   10 Mostly Cloudy SCT026 BKN031 BKN037 82 73     73%   87 29.85        
Jun 24 10:35   10 Cloudy BKN026 OVC032 81 72     74%   86 29.85        
Jun 24 10:15   10 Cloudy BKN025 OVC032 81 72     74%   86 29.86        
Jun 24 09:55   10 Mostly Cloudy SCT025 BKN034 81 72     75%   85 29.87        
Jun 24 09:35 S 11 10 Mostly Cloudy BKN023 81 72     76%   85 29.87        
Jun 24 09:15 S 15 10 Cloudy OVC023 80 72     77%   84 29.89        
Jun 24 08:55 S 14 10 Cloudy OVC022 80 73     78%   84 29.9        
Jun 24 08:35 S 14 10 Cloudy BKN022 OVC030 80 73     80%   83 29.91        
Jun 24 08:15   10 Cloudy SCT019 BKN028 OVC038 80 73     79%   84 29.91        
Jun 24 07:55   10 Cloudy BKN019 BKN030 OVC039 80 73     80%   83 29.91        
Jun 24 07:35   10 Cloudy BKN017 OVC026 79 73     81%   83 29.91        
Jun 24 07:15 SSW 11 10 Cloudy BKN015 OVC025 79 73     84%   82 29.91        
Jun 24 06:55 S 11 10 Cloudy OVC015 78 73     84%   80 29.91        
Jun 24 06:35 S 10 10 Cloudy OVC015 78 73     84%   80 29.91        
Jun 24 06:15 S 14 10 Cloudy OVC015 78 73     84%   80 29.91        
Jun 24 05:55 S 10 10 Cloudy OVC015 78 73     84%   80 29.9        
Jun 24 05:35 S 9 10 Cloudy OVC015 78 72     82%   79 29.89        
Jun 24 05:15 S 11 10 Cloudy OVC015 78 72     82%   79 29.88        
Jun 24 04:55 S 8 10 Mostly Cloudy BKN017 77 71     82%   78 29.88        
Jun 24 04:35 S 5 10 Clear CLR 75 71     88%   77 29.89        
Jun 24 04:15 SE 5 10 Partly Cloudy SCT025 76 72     88%   77 29.89        
Jun 24 03:55 ESE 3 10 Mostly Cloudy BKN025 BKN030 76 72     88%   77 29.89        
Jun 24 03:35 SE 3 10 Mostly Cloudy BKN028 BKN050 BKN065 75 72     92%   76 29.9        
Jun 24 03:15 Calm 10 Mostly Cloudy SCT030 BKN048 BKN050 76 72     87%   78 29.9        
Jun 24 02:55 Calm 10 Mostly Cloudy SCT030 BKN050 77 72     84%   79 29.9        
Jun 24 02:35 Calm 10 Partly Cloudy SCT050 SCT090 78 71     79%   79 29.9        
Jun 24 02:15 SE 5 10 Partly Cloudy SCT090 79 71     78%   80 29.91        
Jun 24 01:55 S 8 10 Clear CLR 78 71     79%   80 29.92        
Jun 24 01:35 SSE 5 10 Clear CLR 78 72     82%   79 29.93        
Jun 24 01:15 SE 3 10 Partly Cloudy SCT050 SCT075 SCT100 78 72     81%   80 29.94        
Jun 24 00:55 SSE 5 10 Mostly Cloudy SCT050 SCT075 BKN080 78 72     81%   80 29.95        
Jun 24 00:35 SSE 6 10 Partly Cloudy SCT075 78 72     81%   80 29.95        
Jun 24 00:15 SSE 6 10 Partly Cloudy SCT075 79 72     80%   80 29.95        
Jun 23 23:55 SSE 5 10 Clear CLR 78 72     81%   80 29.95        
Jun 23 23:35 SE 5 10 Partly Cloudy SCT080 76 72     88%   78 29.95        
Jun 23 23:15 Calm 10 Mostly Cloudy BKN080 76 72     90%   77 29.95        
Jun 23 22:55 Calm 10 Partly Cloudy SCT070 76 73     90%   77 29.96        
Jun 23 22:35 Calm 10 Partly Cloudy SCT070 78 72     83%   79 29.97        
Jun 23 22:15 SE 3 10 Clear CLR 80 72     76%   84 29.96        
Jun 23 21:55 SE 5 10 Clear CLR 81 72     74%   85 29.96        
Jun 23 21:35 SE 6 10 Partly Cloudy SCT070 SCT080 81 72     76%   86 29.96        
Jun 23 21:15 Calm 7 Partly Cloudy SCT050 80 73     78%   84 29.96        
Jun 23 20:55 SE 5 10 Clear CLR 82 72     73%   87 29.95        
Jun 23 20:35 SE 6 10 Clear CLR 82 72     72%   88 29.95        
Jun 23 20:15 SSE 3 10 Clear CLR 83 73     70%   89 29.95        
Jun 23 19:55 SSE 7 5 Haze CLR 84 73     68%   91 29.95        
Jun 23 19:35 SSE 6 10 Clear CLR 86 72     64%   93 29.94        
Jun 23 19:15 SSE 9 10 Clear CLR 87 73     63%   94 29.94        
Jun 23 18:55 SSE 11 10 Clear CLR 87 73     62%   95 29.94        
Jun 23 18:35 S 9 10 Clear CLR 89 72     59%   96 29.94        
Jun 23 18:15 S 10 10 Partly Cloudy SCT042 89 72     58%   96 29.94        
Jun 23 17:55 S 11 10 Partly Cloudy SCT037 90 72     56%   96 29.95        
Jun 23 17:35 S 11 10 Clear CLR 89 72     59%   96 29.95        
Jun 23 17:15 SSW 13 10 Clear CLR 89 73     59%   97 29.95        
Jun 23 16:55 SSW 14 10 Clear CLR 89 73     58%   97 29.95        
Jun 23 16:35 SSW 14 10 Clear CLR 89 72     58%   97 29.96        
Jun 23 16:15   10 Clear CLR 90 73     58%   97 29.97        
Jun 23 15:55 SSW 14 10 Partly Cloudy SCT037 SCT044 SCT080 89 74     60%   99 29.98        
Jun 23 15:35   10 Partly Cloudy SCT037 SCT044 SCT080 89 74     60%   98 29.99        
Jun 23 15:15 SSW 14 10 Clear CLR 90 75     63%   101 29.99        
Jun 23 14:55 SW 11 10 Partly Cloudy SCT033 90 74     61%   99 30        
Jun 23 14:35 SSW 8 10 Partly Cloudy SCT033 SCT039 SCT047 89 75     64%   99 30.01        
Jun 23 14:15 SSW 7 10 Partly Cloudy SCT031 SCT039 SCT045 87 74     65%   96 30.03        
Jun 23 13:55 SSW 7 10 Partly Cloudy SCT028 SCT065 SCT075 87 76     69%   97 30.03        
Jun 23 13:35 SW 8 10 Mostly Cloudy BKN028 BKN039 BKN075 85 74     71%   93 30.04        
Jun 23 13:15 WSW 10 10 Partly Cloudy SCT026 SCT030 86 75     69%   94 30.05        
Jun 23 12:55 SW 6 10 Partly Cloudy SCT022 85 75     73%   93 30.05        
Jun 23 12:35 W 7 10 Partly Cloudy SCT022 SCT029 SCT036 85 76     75%   94 30.05        
Jun 23 12:15 WSW 8 10 Cloudy BKN022 OVC029 84 75     76%   92 30.06        
Jun 23 11:55 WSW 6 10 Cloudy OVC022 83 74     74%   91 30.07        
Jun 23 11:35 SW 8 10 Cloudy BKN020 OVC026 84 75     74%   93 30.07        
Jun 23 11:15 SSW 9 10 Cloudy OVC018 82 74     77%   88 30.08        
Jun 23 10:55 SSW 9 10 Cloudy OVC018 83 74     76%   89 30.08        
Jun 23 10:35 WSW 6 10 Cloudy OVC018 82 73     76%   87 30.08        
Jun 23 10:15 SW 8 10 Mostly Cloudy SCT018 BKN065 81 73     75%   87 30.08        
Jun 23 09:55 SSW 8 10 Partly Cloudy SCT055 81 73     76%   87 30.08        
Jun 23 09:35 SSW 8 10 Clear CLR 81 72     74%   85 30.09        
Jun 23 09:15 SSW 9 10 Partly Cloudy SCT060 SCT065 79 70     74%   82 30.09        
Jun 23 08:55 SSE 5 10 Mostly Cloudy SCT021 BKN060 BKN070 79 69     73%   80 30.1        
Jun 23 08:35 SE 3 10 Cloudy BKN021 OVC060 76 69     77%   77 30.1        
Jun 23 08:15 ESE 3 10 Cloudy BKN021 OVC060 75 68     79%   76 30.09        
Jun 23 07:55 Calm 10 Cloudy OVC023 74 68     82%   74 30.09        
Jun 23 07:35 S 3 10 Cloudy OVC025 73 67     81%   73 30.09        
Jun 23 07:15 SSE 3 10 Cloudy OVC027 72 67     85%   72 30.08        
Jun 23 06:55 Calm 10 Cloudy OVC032 71 66     85%   72 30.08        
Jun 23 06:35 SE 3 10 Mostly Cloudy BKN034 BKN049 BKN060 71 66     86%   71 30.08        
Jun 23 06:15 SE 5 10 Mostly Cloudy BKN037 BKN048 BKN060 70 66     87%     30.07        
Jun 23 05:55 Calm 10 Partly Cloudy SCT041 69 66     91%     30.07        
Jun 23 05:35 SSE 5 10 Clear   69 66     89%     30.06        
Jun 23 05:15 SSE 5 10 Clear   69 66     89%     30.06        
Jun 23 04:55 Calm 10 Clear   69 67     92%     30.06        
Jun 23 04:35 Calm 10 Mostly Cloudy BKN038 69 67     93%     30.06        
Jun 23 04:15 ESE 3 10 Partly Cloudy SCT038 69 67     95%     30.06        
Jun 23 03:55 Calm 10 Partly Cloudy SCT041 69 67     95%     30.06        
Jun 23 03:35 Calm 10 Mostly Cloudy BKN041 69 67     95%     30.05        
Jun 23 03:15 Calm 10 Partly Cloudy SCT041 69 67     93%     30.05        
Jun 23 02:55 ESE 3 10 Clear CLR 69 67     92%     30.05        
Jun 23 02:35 Calm 10 Clear CLR 68 67     95%     30.05        
Jun 23 02:15 E 3 10 Clear CLR 69 67     95%     30.05        
Jun 23 01:55 Calm 10 Clear CLR 69 67     95%     30.05        
Jun 23 01:35 Calm 10 Clear CLR 70 67     92%     30.05        
Jun 23 01:15 ESE 5 10 Clear CLR 69 67     92%     30.06        
Jun 23 00:55 Calm 10 Clear CLR 69 67     95%     30.06       0
Jun 23 00:35 Calm 10 Clear CLR 69 67     92%     30.07        
Jun 23 00:15 E 3 10 Clear CLR 70 67     89%     30.05        
Jun 22 23:55 SSE 5 10 Clear CLR 71 67     87%   72 30.03        
Jun 22 23:35 N 6 10 Clear CLR 70 67     88%   71 30.02        
Jun 22 23:15 NW 8 10 Clear CLR 71 67     86%   72 30.01        
Jun 22 22:55 SW 6 10 Clear CLR 71 67     86%   72 29.98        
Jun 22 22:35 ESE 6 10 Clear CLR 71 66     85%   72 29.96        
Jun 22 22:15 E 7 10 Clear CLR 71 67     88%   71 29.97        
May 15 10:55 SSW 8 10 Clear CLR 85 68     56%   88 30        
Notice The following observation data may not be complete
May 15 09:55   10 Clear CLR          %              
May 14 19:55 ESE 3 10 Clear   78 66     66%   78 29.95        
May 14 17:35 N 3 10 Clear CLR 88 61     41%   88 29.96        
May 14 09:55 N 3 10 Clear CLR 82 66     59%   84 30.08        
May 14 02:35 Calm 7 Clear CLR 65 64     97%     30.03        
May 14 01:15 Calm 10 Clear CLR 66 65     95%     30.06        
May 14 00:55 Calm 10 Clear CLR 66 64     94%     30.06        
May 14 00:15 Calm 10 Clear CLR 67 65     93%     30.08        
May 13 23:35 Calm 10 Clear CLR 68 66     92%     30.08        
May 13 10:15 WSW 8 10 Clear CLR 83 62     49%   84 30.16        
Notice The following observation data may not be complete
May 13 02:55   10 Clear CLR          %              
May 13 00:35 Calm 10 Clear CLR 63 60     90%     30.09        
May 12 23:55 SSE 3 10 Clear CLR 66 61     84%     30.08        
May 12 21:15 Calm 10 Clear CLR 69 62     78%     30.1        
May 12 17:15 SSW 8 10 Clear CLR 86 56     36%   85 30.09        
May 12 16:55 WNW 8 10 Clear CLR 86 56     36%   85 30.09        
May 12 16:35 NW 7 10 Clear CLR 87 56     35%   85 30.09        
Notice The following observation data may not be complete
May 12 15:35   10 Clear CLR          %              
May 11 21:35 S 8 10 Clear CLR 74 58     59%   73 30.06        
May 11 21:15 S 6 10 Clear CLR 73 60     63%   73 30.06        
May 11 17:15 SW 14 10 Clear CLR 87 60     41%   86 30.05        
Notice The following observation data may not be complete
May 11 13:15   10 Clear CLR          %              
Notice The following observation data may not be complete
Jun 12 08:35   10 Mostly Cloudy SCT018 BKN026 BKN100          %              
Jun 12 04:15 Calm 10 Clear CLR 72 66     83%   72 30.12        
Jun 12 04:00 Calm 10 Clear CLR 72 66     83%   72 30.12        
Jun 12 00:15 Calm 10 Clear CLR 70 66     88%     30.12        
Jun 11 12:55 SE 7 10 Partly Cloudy SCT047 SCT055 86        %     30.16        
Jun 11 11:55 SSE 9 10 Partly Cloudy SCT065 84        %     30.17        
Jun 11 06:55 ESE 3 10 Clear CLR 68 61     78%     30.14        
Jun 11 02:35 Calm 10 Clear   63 61     94%     30.1        
Jun 11 02:15 Calm 10 Clear CLR 63 61     94%     30.11        
Jun 09 23:35 Calm 10 Partly Cloudy SCT060 63 59     88%     30.01        
Jun 09 21:35 Calm 10 Clear CLR 64 59     83%     29.98        
Jun 09 20:15 Calm 10 Clear CLR 70 59     69%     29.95        
Notice The following observation data may not be complete
Jun 09 19:15   10 Clear CLR          %              
Jun 09 18:55 Calm 10 Clear CLR 79        %     29.94        
Jun 09 16:35 Calm 10 Clear CLR 79        %     29.95        
Jun 09 10:15 ESE 3 10 Clear CLR 73 55     53%   73 30        
Notice The following observation data may not be complete
Jun 09 04:35   10 Clear CLR          %              
Jun 09 03:35 Calm 10 Clear CLR 55 54     94%     29.93        
Jun 08 21:35 Calm 10 Clear CLR 63 54     72%     29.92        
Jun 08 20:35 N 3 10 Clear CLR 68 54     60%     29.9        
Jun 08 07:55 N 6 10 Clear CLR 61 54     77%     29.96        
Jun 08 06:55 Calm 10 Clear CLR 57 54     88%     29.94        
Jun 07 14:55 N 13 10 Partly Cloudy SCT060 77        %     29.88        
Jun 07 13:55 NNE 11 10 Partly Cloudy SCT060 79        %     29.88        
Jun 07 12:35 NNE 11 10 Clear   77        %     29.9        
Notice The following observation data may not be complete
Jun 06 15:15   10 Clear CLR          %              
Jun 06 07:15 Calm 10 Mostly Cloudy SCT060 BKN080 68 68     100%     29.83        
Jun 06 06:55 Calm 7 Light Rain SCT033 BKN060 OVC085 68 68     100%     29.84   0    
Jun 06 05:55 Calm 10 Light Rain BKN003 OVC009 68 68     100%     29.83        
Jun 06 03:55 Calm 10 Mostly Cloudy BKN007 BKN110 68 66     94%     29.81        
Jun 05 19:15 Calm 10 Light Drizzle SCT050 73 68     83%   74 29.8